World > North America > United States > New York

Amsterdam, New York Regional Weather

Lat: 42.94N, Lon: 74.19W
Wx Zone: NYZ040
Feedback

Amsterdam, NY Regional Weather

Expires:201907220800;;443243
ASUS41 KALY 220710
RWRALY

NEW YORK STATE HOURLY WEATHER ROUNDUP
NATIONAL WEATHER SERVICE ALBANY NY
300 AM EDT MON JUL 22 2019

NOTE: "FAIR" INDICATES FEW OR NO CLOUDS BELOW 12,000 FEET WITH NO
SIGNIFICANT WEATHER AND/OR NO OBSTRUCTIONS TO VISIBILITY.


NYZ032-033-038>043-046>054-057>066-NYZ062>081-082-084-220800-
EAST

  
CITY           SKY/WX    TMP DP  RH WIND       PRES   REMARKS
ALBANY         MOCLDY    69  58  67 S3        29.89R                  
GLENS FALLS    FAIR      62  60  93 CALM      29.88R                  
POUGHKEEPSIE   FAIR      73  69  87 CALM      29.88R                  
NEWBURGH       MOCLDY    73  73 100 W6        29.91R                  
MONTGOMERY     MOCLDY    75  68  78 W7        29.87F                  
WHITE PLAINS   FAIR      79  71  76 N8        29.84F                  
ISLIP          FAIR      79  76  90 CALM      29.82F                  
NEW YORK CITY  CLOUDY    82  69  64 N6        29.81F                  
CENTRAL PARK   FAIR      80  71  74 CALM      29.85F                  
$$


SKY/WX - Weather  TMP - Temperature  DP - Dew Point  RH - Relative Humidity
WIND - Wind Direction/Speed PRES - Barometric Pressure VSB - Visibility
WCI - Wind Chill Index E13G22 Wind - East Wind 13 mph/Gusts of 22 mph